RH
46 46 43 37 34 40 29 40 76 97 103 100 100 95 91 91 63 43 46 36 36 37 32 45 56 47 36 37 33 17 14 15 13 22 22 19 23 21 27 33 32 35 38 33 26 26 29 32 35 40 37 32 35 32 30 33 36 39 45 69 94 82 50 33 46 57 52 43 30 30 26 26 27 26 33 32 35 35 31 30 30 31 30 33 32 30 38 45 47 43 39 44 51 79 98 85 82
49 49 45 37 38 49 46 68 101 102 102 104 99 99 98 75 44 39 40 35 39 36 38 54 55 39 38 40 27 17 12 13 17 23 22 17 21 24 24 30 40 43 40 31 23 22 22 27 30 31 31 31 32 28 30 39 51 67 71 85 103 101 81 44 46 70 77 66 34 30 31 27 30 30 38 39 38 32 28 28 26 28 30 41 49 41 39 41 42 43 38 40 44 57 68 60 57
50 48 40 36 36 51 78 96 104 101 101 103 98 100 91 63 45 35 27 33 46 41 41 47 42 36 42 38 22 14 10 18 22 19 24 17 17 25 22 31 46 42 28 22 21 24 28 31 35 36 36 34 32 33 39 47 60 81 89 97 101 103 96 52 47 66 80 90 53 34 38 36 39 39 44 50 49 39 33 35 39 40 34 37 48 56 61 59 63 64 49 50 56 57 62 59 56
48 41 36 41 40 52 93 104 99 103 99 102 99 99 91 64 43 26 22 35 49 45 37 33 35 41 43 35 19 11 11 20 21 17 21 16 17 22 26 37 42 32 20 22 27 30 34 36 41 44 46 44 42 38 37 39 41 55 71 88 98 100 78 43 62 64 57 96 77 39 41 50 58 67 71 70 72 62 46 45 54 50 47 42 32 47 78 94 92 93 84 67 63 80 92 75 57
45 39 35 42 59 74 98 101 99 102 96 104 100 98 91 63 47 34 32 48 54 43 31 28 38 45 42 33 16 10 13 17 19 16 17 16 18 23 31 40 38 34 24 23 29 32 38 39 44 57 69 69 68 64 59 62 54 43 50 71 92 100 65 37 73 67 44 77 71 38 42 56 60 77 95 97 99 91 69 61 65 61 71 74 51 42 73 100 73 66 97 82 49 53 66 58 43
41 40 31 40 82 99 100 100 99 101 97 105 100 99 92 65 60 53 45 56 55 39 30 32 43 46 40 30 14 11 13 15 18 16 18 19 22 24 30 38 39 38 26 22 28 32 39 42 42 54 80 94 96 94 85 90 84 54 40 54 82 102 73 48 76 68 39 51 55 45 46 60 61 62 78 86 87 93 92 84 83 77 86 100 90 63 69 98 60 27 78 94 52 36 44 50 45
35 37 30 38 87 103 99 103 100 100 100 105 102 103 98 74 62 60 58 58 49 37 33 36 44 44 39 27 13 17 16 14 17 17 19 21 27 25 27 34 34 33 27 25 30 34 38 41 42 42 64 89 90 83 72 67 63 48 38 46 68 90 78 60 76 66 44 49 66 69 61 71 77 71 78 81 66 74 90 77 81 92 91 98 103 90 80 92 74 45 80 97 53 54 83 74 50
30 37 49 58 91 104 98 103 101 98 98 101 101 102 100 83 65 59 63 60 46 36 35 38 44 42 37 26 14 21 20 13 16 18 19 21 26 25 26 29 29 31 30 32 35 38 40 38 40 38 49 71 75 73 71 51 34 36 39 43 53 68 66 58 66 58 46 50 65 80 87 90 89 78 77 92 83 76 90 78 82 101 96 98 102 97 86 75 71 70 97 100 51 61 105 91 57
26 44 78 88 97 102 98 101 100 98 99 102 100 97 91 86 82 70 65 63 49 40 40 38 42 42 36 26 14 15 14 14 17 17 18 20 22 26 26 25 29 31 33 39 39 40 41 38 37 35 41 54 61 68 71 47 25 31 35 37 41 47 48 49 52 41 36 50 64 81 97 101 103 87 60 77 91 79 87 91 95 102 93 93 87 74 71 61 60 77 101 106 68 57 92 98 72
31 62 92 97 100 98 101 103 99 100 102 102 99 95 90 92 97 87 74 65 52 47 45 37 42 42 34 27 15 11 12 15 17 17 18 18 21 26 25 26 29 31 37 39 37 39 38 39 37 36 38 43 50 56 55 37 25 29 30 31 32 35 39 41 38 33 39 58 74 84 91 92 97 87 58 63 81 82 87 90 94 96 86 78 68 59 62 55 54 69 76 84 77 58 76 92 76
39 83 98 99 102 95 101 104 99 100 98 99 96 93 97 96 91 88 84 75 65 59 48 37 42 41 34 28 16 11 13 14 16 18 17 18 22 25 25 25 25 27 31 30 29 32 35 39 39 45 46 39 43 43 38 31 29 31 29 32 28 27 32 32 31 34 42 49 55 60 63 64 64 64 66 71 68 73 85 91 94 93 87 75 64 58 54 53 53 60 58 63 81 77 78 80 71
40 85 97 96 102 98 100 100 99 99 97 100 95 90 96 96 92 91 91 89 80 65 47 36 38 38 36 30 19 12 11 14 16 18 17 19 23 24 24 19 17 18 18 21 21 24 35 41 50 69 58 31 29 31 32 33 34 36 39 47 45 38 36 37 42 43 47 49 47 44 42 44 52 59 74 88 71 55 61 75 92 96 87 71 56 50 55 72 79 81 83 85 96 97 91 78 74
45 87 90 85 98 101 101 99 99 100 99 98 95 95 96 101 103 92 89 93 83 62 44 36 36 35 36 33 22 13 10 14 15 18 18 20 23 24 25 20 15 13 14 18 22 27 33 46 66 80 59 33 31 31 35 37 38 45 58 71 72 67 55 56 63 58 60 65 60 51 50 56 67 72 70 82 83 64 50 51 75 93 86 73 61 59 75 93 98 97 99 101 102 102 99 90 90
44 91 94 89 99 99 104 105 97 97 100 97 99 98 88 92 92 84 95 100 79 57 45 38 35 35 35 34 27 14 10 14 14 18 19 20 24 24 26 26 19 12 14 18 26 32 40 64 81 79 65 49 42 37 39 45 43 48 69 83 85 84 71 74 77 60 63 76 78 67 66 79 84 80 64 69 83 73 56 41 56 86 84 77 71 72 92 100 99 100 100 100 101 101 97 94 98
48 83 95 96 101 97 105 107 97 98 101 98 99 97 84 81 76 75 90 96 76 56 51 41 34 36 35 33 30 18 10 12 14 16 19 21 24 25 27 28 23 13 11 17 21 28 43 65 72 76 73 53 48 49 49 54 53 49 65 82 88 87 79 91 91 66 67 79 91 89 86 95 95 85 62 61 74 61 56 45 45 77 82 73 75 80 95 100 98 97 98 99 100 101 92 84 90
49 87 104 101 103 98 104 105 99 99 99 95 95 98 88 78 70 58 57 71 71 53 48 42 35 36 34 33 31 21 12 11 14 15 18 21 23 26 29 29 25 15 10 12 12 17 28 39 45 53 53 50 68 76 59 54 65 62 67 92 99 84 78 97 96 72 73 84 97 100 94 97 102 98 66 61 74 53 48 47 37 61 79 86 94 95 96 96 96 95 96 100 102 100 91 84 87
45 89 93 96 106 99 102 101 96 98 101 98 99 102 91 77 63 47 44 52 55 46 42 41 38 36 33 34 32 25 14 10 13 15 17 20 23 26 30 32 27 19 14 11 10 11 12 17 27 39 52 77 96 87 65 58 65 62 65 90 90 64 61 80 82 76 88 99 96 84 80 85 91 88 58 50 67 56 47 46 45 54 74 97 104 98 99 96 91 94 98 101 104 100 97 93 93
47 69 69 85 98 97 99 96 94 93 97 99 100 98 88 76 60 51 49 44 46 44 40 41 40 35 33 33 31 28 17 10 13 14 17 19 22 26 30 33 29 24 20 16 16 14 11 11 21 45 67 85 86 66 58 64 60 57 64 76 67 44 37 48 63 85 99 96 85 72 73 72 68 68 61 63 68 62 49 44 53 51 55 79 96 98 97 86 68 63 69 79 91 95 96 91 91
40 59 85 96 92 94 96 99 96 81 88 101 98 91 77 64 58 59 55 59 68 48 37 48 41 31 32 32 30 29 19 10 11 13 15 18 23 25 28 31 31 28 24 24 26 25 19 12 19 45 53 49 50 39 41 57 59 66 77 83 81 59 34 31 61 95 96 86 88 89 77 56 61 74 72 81 86 75 60 57 57 39 33 42 56 75 76 68 56 42 42 62 80 84 85 89 96
46 74 105 102 97 98 96 105 97 79 93 103 100 94 74 57 55 62 61 71 76 51 53 60 40 30 30 28 26 25 20 11 10 13 14 16 21 26 27 27 29 30 29 29 32 34 29 21 21 29 29 25 27 27 30 36 42 52 54 60 65 48 29 27 64 101 99 98 101 90 63 41 67 85 60 65 92 90 75 79 74 53 58 57 51 73 81 79 81 73 70 80 84 78 77 84 89
49 82 101 89 84 89 99 106 89 86 103 102 99 89 68 59 58 66 66 66 66 65 85 77 40 30 29 25 23 19 16 11 8 12 14 15 18 24 28 26 27 29 32 33 34 38 35 35 31 22 18 16 14 16 21 23 27 36 33 39 41 28 23 30 68 95 88 97 91 60 41 34 58 72 50 55 82 85 68 68 71 66 85 95 87 96 99 97 101 99 100 91 75 73 76 68 64
36 62 82 67 52 66 94 102 82 74 86 99 99 74 61 59 53 64 69 73 76 71 88 84 43 24 25 25 20 15 12 10 9 10 13 14 15 20 25 26 26 27 31 34 37 41 40 38 41 38 24 12 11 9 15 24 24 29 32 51 64 45 29 32 56 62 49 68 69 42 29 32 50 54 45 48 61 76 75 68 65 65 86 107 106 103 101 102 101 96 101 90 66 64 65 51 47
29 44 62 56 44 57 83 99 88 63 69 96 89 60 57 53 43 57 66 70 67 57 71 70 33 13 17 21 18 14 10 9 9 9 12 14 14 17 21 24 25 26 29 32 36 42 40 34 41 48 34 17 15 10 16 22 20 25 24 42 58 39 25 27 35 35 29 39 43 33 26 33 44 44 43 46 60 86 95 85 75 72 79 87 93 101 102 102 97 83 79 72 56 51 45 43 42
26 35 48 55 52 59 80 97 91 73 71 77 77 69 57 41 39 57 62 50 45 64 82 55 21 12 12 13 14 12 10 10 10 9 11 14 14 15 18 22 24 25 27 30 34 39 35 30 33 39 38 29 19 18 25 22 17 21 20 32 33 22 34 33 27 35 38 36 27 18 22 35 37 39 43 42 66 97 98 85 71 58 49 53 79 103 101 94 86 66 55 51 58 72 64 63 59
25 27 34 50 58 69 94 105 94 83 63 54 81 84 53 36 44 61 57 47 61 83 75 37 17 17 13 11 12 11 10 10 11 9 10 13 14 14 17 20 23 24 25 28 32 38 36 31 32 36 37 36 34 32 30 22 19 21 26 34 27 41 66 48 30 34 38 45 33 14 18 29 31 41 45 45 78 96 78 62 50 41 38 52 82 96 88 77 67 53 51 55 69 91 81 76 78
28 27 31 43 56 72 90 95 89 80 56 60 94 83 60 56 50 57 50 54 92 97 66 40 30 27 21 15 11 11 11 10 12 10 9 12 13 14 16 19 21 23 23 26 30 37 39 35 38 42 40 44 50 41 28 20 19 24 28 25 24 55 67 34 27 32 32 40 27 14 18 19 27 41 40 48 79 73 45 42 46 47 53 77 93 84 74 64 59 54 56 67 73 81 75 68 70
28 28 33 40 59 78 75 77 84 73 47 59 95 90 87 79 48 58 60 49 72 80 68 55 42 40 32 16 11 12 10 11 12 10 9 10 13 13 15 18 19 21 22 24 28 34 40 41 43 48 46 47 45 34 32 28 20 23 25 27 43 72 63 24 21 27 28 31 23 23 23 20 29 40 38 37 46 41 36 40 45 55 68 97 99 67 55 49 54 58 58 71 71 78 87 72 63
28 29 34 34 61 88 82 87 96 72 36 38 76 94 102 90 62 73 73 44 41 51 61 57 43 46 41 20 13 14 12 12 12 11 9 9 13 14 14 17 18 19 20 21 25 30 37 43 48 51 51 49 37 27 32 30 22 19 23 39 59 81 73 31 16 18 18 26 31 29 23 26 34 38 39 30 21 26 42 46 52 77 90 94 75 42 37 36 44 49 49 66 70 81 91 76 73
33 35 37 29 57 96 95 94 95 69 38 29 46 74 96 91 72 69 56 42 48 52 56 54 45 51 51 28 13 14 13 12 12 11 9 9 12 14 14 16 18 18 18 18 20 26 34 41 48 51 52 52 43 29 25 26 23 17 25 43 51 74 72 26 11 15 11 21 28 21 18 27 34 34 32 24 18 23 45 64 74 83 74 62 51 41 40 36 42 39 38 67 83 81 67 61 75
40 42 39 28 46 82 86 75 70 56 39 29 30 53 73 64 65 79 66 55 62 65 66 63 61 68 59 30 14 16 14 12 13 11 10 9 11 14 14 15 17 17 17 17 17 21 30 37 44 48 50 52 50 37 26 25 24 17 27 40 41 54 48 14 11 15 10 17 18 15 20 28 30 28 24 18 15 17 31 48 51 44 36 38 44 46 39 28 32 27 29 63 82 71 46 51 71
41 42 37 31 37 56 65 57 51 43 32 28 28 42 52 40 61 97 92 73 65 75 89 87 85 81 54 24 16 16 14 14 12 11 11 9 10 14 15 15 16 17 17 17 16 19 25 33 40 45 47 49 50 44 31 23 22 18 21 41 57 49 27 11 13 13 11 14 13 15 25 32 31 27 23 17 14 13 15 19 20 22 26 35 42 47 40 23 21 20 24 50 69 70 49 43 50
34 39 35 35 41 46 50 45 43 42 32 29 30 39 43 35 60 94 93 76 69 87 103 101 99 81 49 27 20 18 16 15 13 12 12 10 10 13 16 16 16 17 17 17 17 18 23 30 36 41 45 46 47 44 35 25 22 20 17 43 71 56 29 18 14 15 13 12 13 15 25 34 32 29 28 25 24 20 17 17 20 26 33 36 37 41 38 27 27 25 19 26 38 43 32 31 39
26 35 36 38 44 47 49 44 42 43 36 34 36 37 32 31 59 89 89 67 64 91 103 99 101 87 61 39 28 24 17 15 15 13 12 11 10 11 16 17 16 17 18 17 17 18 22 28 32 37 43 43 43 40 36 26 20 20 18 37 56 43 30 20 13 16 12 11 14 13 22 33 31 30 31 31 33 32 28 26 26 32 36 35 31 28 26 26 29 29 23 19 19 19 16 31 48
21 28 34 38 41 44 50 49 45 45 41 36 39 40 31 35 56 75 80 59 51 85 103 98 101 96 71 46 43 37 20 17 17 14 14 12 11 10 14 18 18 16 18 19 18 17 21 25 28 34 38 39 39 38 34 25 22 20 17 34 43 29 23 16 10 15 12 12 14 12 19 26 27 28 29 31 33 34 35 33 31 31 32 33 34 29 26 25 26 31 32 24 20 22 18 24 35
20 23 27 33 37 39 44 47 45 44 44 38 42 47 36 38 50 56 63 47 38 78 104 97 100 103 79 59 63 52 28 22 17 16 17 12 13 11 11 17 21 17 15 19 20 18 21 25 27 31 35 34 34 35 31 22 21 20 17 29 33 27 33 27 13 15 13 13 13 12 16 19 22 21 21 26 28 29 32 32 32 31 30 32 33 31 31 31 31 31 31 27 29 35 29 23 25
18 20 22 25 30 33 37 42 43 42 42 38 40 42 36 42 51 51 51 35 41 84 103 97 98 102 91 80 81 64 39 30 20 17 18 14 14 12 11 15 21 22 15 16 21 18 20 27 27 28 32 30 27 28 26 20 18 19 18 22 23 32 48 36 16 15 13 12 14 13 13 15 16 17 16 17 18 20 22 24 26 25 25 26 24 26 28 32 36 35 31 32 40 46 37 25 25
18 18 19 21 23 27 30 34 38 41 42 39 38 36 38 49 47 43 39 32 64 103 102 97 97 98 100 87 76 60 43 40 30 19 18 17 14 12 12 13 19 25 18 14 19 20 20 26 28 26 28 26 22 22 21 19 17 17 18 20 21 28 40 33 15 14 14 12 14 13 13 14 13 15 16 16 16 15 15 16 17 16 16 18 19 19 20 26 34 36 35 34 37 42 39 31 29
20 20 20 22 21 22 25 27 30 35 38 39 37 32 33 42 40 38 35 35 79 109 96 96 95 98 107 90 74 62 47 51 43 23 19 18 14 13 12 12 17 24 24 16 16 20 20 24 29 25 23 23 20 18 18 17 16 17 17 19 22 27 49 60 33 12 14 14 13 14 13 14 14 14 15 15 17 16 15 15 15 14 12 12 13 13 14 20 26 27 31 33 31 34 40 40 38
20 22 23 23 21 19 20 21 24 28 30 31 32 32 31 33 35 40 34 36 81 108 97 100 97 98 109 95 89 81 58 58 51 28 22 19 15 15 12 12 14 19 26 22 14 19 21 22 28 25 21 21 20 17 16 16 14 15 17 18 24 29 49 68 41 12 14 14 13 15 14 14 14 14 14 15 15 16 16 17 16 16 15 13 12 11 12 16 21 21 23 27 26 27 33 39 42
20 23 23 22 21 21 20 19 20 23 25 26 25 28 30 29 35 43 33 34 81 111 100 101 98 93 103 98 96 93 72 65 57 37 27 20 16 16 12 12 13 14 23 27 19 16 19 22 25 25 22 18 19 17 14 16 14 14 17 16 22 26 27 31 22 13 15 14 14 16 15 15 14 14 15 14 14 15 16 16 17 17 17 17 14 13 13 16 19 17 17 20 22 24 25 30 36
20 22 22 22 21 22 21 18 19 20 21 23 22 24 25 24 29 38 36 35 70 103 101 101 99 94 103 99 89 90 89 87 78 58 37 25 21 16 13 13 13 12 17 26 25 16 17 22 23 23 23 19 18 18 15 16 15 13 16 16 17 21 20 16 13 14 15 14 16 16 16 16 15 15 15 14 15 15 15 15 17 17 17 18 17 16 15 15 15 14 14 15 17 21 22 24 27
18 21 21 22 21 21 20 19 20 20 20 20 20 21 21 22 21 25 38 40 52 85 102 102 99 99 102 87 76 88 98 101 102 86 54 33 29 23 15 12 13 12 12 21 28 20 15 19 23 22 22 21 19 18 17 17 16 15 14 16 16 17 20 18 15 16 16 15 15 16 17 17 16 16 15 15 15 14 15 15 15 17 17 18 18 18 17 16 15 14 13 12 13 16 18 20 22
17 18 19 21 21 21 19 19 20 20 22 22 21 22 18 19 17 16 32 43 51 83 105 99 95 102 94 73 80 102 93 82 98 102 73 45 40 38 25 12 12 14 11 16 26 26 18 16 21 23 21 22 21 19 19 17 17 17 15 14 14 15 19 19 19 24 23 17 15 16 16 17 18 18 17 15 15 14 15 15 15 16 16 17 18 18 19 19 18 17 15 14 13 13 14 16 19
17 16 17 19 20 20 19 19 20 20 22 22 21 22 17 15 16 15 22 37 62 93 104 98 97 100 89 67 73 89 67 51 79 104 94 67 47 46 42 21 11 15 13 12 20 27 25 17 17 22 22 22 21 20 19 18 18 18 18 16 14 14 16 18 21 24 22 16 15 17 16 17 18 19 19 18 16 15 14 14 15 15 15 16 17 18 19 19 19 20 19 18 17 16 15 15 16
19 15 14 16 16 18 20 20 21 21 22 22 20 20 18 15 17 17 16 27 59 87 97 102 101 92 78 56 47 51 36 29 60 95 106 85 50 44 54 35 14 13 14 13 14 21 28 23 16 20 23 22 22 21 19 19 20 18 19 18 17 15 14 17 20 20 18 15 15 17 16 18 19 20 21 20 19 17 15 15 14 15 16 16 16 17 17 18 20 20 21 21 21 20 20 19 19
22 14 13 14 14 16 18 18 20 21 21 22 21 20 19 19 20 19 16 18 31 45 58 70 69 58 52 42 32 30 24 18 39 84 109 89 52 44 55 43 24 16 13 15 13 15 27 29 19 17 22 23 21 21 20 19 20 20 20 20 19 18 15 15 18 20 19 16 15 17 17 18 19 20 21 21 21 19 18 17 15 15 15 15 16 16 16 17 18 19 20 21 21 21 21 22 22
30 21 17 15 15 15 15 17 19 21 21 21 22 22 20 21 22 22 19 17 18 20 28 36 41 49 52 45 31 26 28 17 28 82 108 75 51 55 57 45 32 22 14 15 15 13 22 32 26 17 19 24 22 21 21 20 21 20 20 21 20 20 19 16 16 18 20 19 16 16 17 18 18 19 21 21 22 21 21 19 18 17 15 15 16 16 17 17 17 18 19 19 21 21 21 21 21
39 33 28 22 18 15 14 16 17 19 19 19 22 21 21 20 20 22 20 18 20 19 21 23 28 44 47 36 29 31 30 19 41 100 100 56 52 69 67 52 35 24 18 14 15 14 17 29 31 21 17 22 24 22 21 20 21 22 21 22 21 21 21 20 18 17 17 18 18 16 17 18 18 19 20 21 22 22 23 22 21 19 17 16 16 15 16 17 17 18 18 18 19 19 20 20 20
43 40 38 33 25 17 16 16 16 18 18 19 21 20 21 22 20 21 20 21 23 20 26 28 20 28 33 26 29 33 30 32 61 90 65 38 57 74 77 68 40 26 23 14 14 15 12 23 33 26 18 20 24 24 22 22 21 21 22 21 22 22 22 22 21 19 17 17 17 17 17 17 18 19 19 20 22 23 24 24 24 23 21 18 17 16 17 17 18 18 18 19 19 18 19 19 19
47 44 47 47 38 28 22 18 15 16 17 18 19 19 20 21 20 21 20 25 28 24 36 46 34 30 34 28 28 34 47 59 59 55 52 58 69 78 94 86 49 39 35 16 13 16 11 15 27 30 22 17 23 26 23 23 22 22 22 22 22 23 23 23 23 22 21 18 17 17 16 17 18 19 19 20 21 22 24 24 25 26 25 23 20 18 18 17 17 17 18 18 18 19 19 19 20
47 47 53 55 49 40 30 24 22 18 17 18 17 18 19 18 21 24 22 24 28 24 28 38 35 31 31 28 25 31 53 65 49 48 78 88 73 79 105 96 67 65 60 28 12 15 13 11 19 29 26 18 20 25 25 24 23 22 22 23 23 23 24 24 25 24 24 22 20 19 17 17 18 18 19 20 20 22 22 23 26 28 28 27 25 23 21 19 18 18 18 18 18 19 19 20 20
36 42 52 58 56 50 40 34 32 25 21 19 16 16 17 17 19 23 22 20 22 22 24 27 27 25 24 23 23 26 42 54 44 39 56 67 59 65 93 98 86 89 89 56 22 13 15 12 14 22 26 23 19 21 26 25 24 24 23 23 24 24 25 25 25 26 25 25 24 22 21 19 18 19 19 19 20 21 22 23 25 27 28 28 29 28 26 24 22 20 19 19 19 19 19 20 20
27 34 52 68 68 60 53 48 42 31 23 21 18 15 16 18 18 19 20 22 21 19 19 26 35 33 25 25 27 30 38 49 49 37 37 53 51 45 63 80 84 96 103 82 46 28 24 17 15 19 22 25 22 19 22 25 25 25 24 24 24 24 25 25 26 27 26 27 26 25 25 23 21 21 20 20 20 21 22 23 24 26 27 29 30 31 31 30 28 25 23 21 20 20 20 20 20
23 27 47 74 81 70 62 55 45 34 26 24 22 18 16 19 22 19 18 24 27 25 19 22 36 39 35 39 37 34 41 49 53 42 35 46 46 38 48 56 70 95 105 94 72 53 42 31 22 19 17 21 25 22 21 22 25 26 25 26 26 25 26 26 26 27 27 28 28 27 27 25 24 24 22 21 21 22 22 23 24 26 27 29 30 31 33 34 33 31 29 26 23 22 21 21 21
21 21 32 59 76 70 63 59 52 41 33 30 27 25 20 17 19 20 19 22 25 28 27 22 25 26 31 44 44 45 51 50 49 36 23 32 37 36 44 46 65 96 102 99 88 64 56 52 36 24 17 17 23 25 23 22 21 24 25 26 27 27 27 27 27 28 28 28 29 29 29 28 27 26 25 25 23 23 24 23 24 25 27 29 30 32 34 35 36 36 34 32 29 25 24 23 23
23 21 24 43 61 64 65 67 64 56 47 40 37 39 31 18 16 17 17 20 20 23 30 27 23 21 23 31 34 41 44 32 30 27 19 26 29 29 39 44 68 101 102 102 94 68 66 70 54 37 24 18 24 27 27 26 22 22 23 25 27 28 27 28 28 28 29 30 29 30 30 29 29 27 26 27 27 26 26 25 26 26 28 29 30 33 35 36 38 38 38 37 34 32 29 26 25
24 24 23 31 43 53 68 76 72 67 63 55 49 50 44 28 20 18 15 17 19 23 29 25 20 19 21 23 20 25 27 18 22 26 24 31 31 31 30 28 63 103 101 101 99 79 75 77 68 58 45 35 34 30 29 30 27 25 24 24 25 28 29 28 29 29 30 30 30 31 31 30 30 30 28 27 27 28 28 28 29 29 30 32 33 35 37 38 40 39 40 40 39 38 35 31 30
22 25 23 23 25 35 62 83 82 73 70 66 58 55 52 40 27 21 18 18 17 21 25 23 20 19 20 22 18 17 17 15 17 19 22 28 25 24 22 28 72 105 98 101 105 94 91 86 80 81 74 65 57 48 41 34 29 28 26 26 25 25 27 27 28 30 30 31 32 31 32 32 31 30 30 29 28 28 29 29 30 31 32 33 35 37 38 39 41 41 42 43 42 41 40 37 35
Wind_Speed
12 9 6 5 3 1 1 1 3 4 7 9 9 10 10 11 15 16 16 18 18 19 21 23 26 29 35 39 42 44 36 25 21 18 18 17 15 14 11 10 10 11 10 10 10 9 9 10 12 14 15 14 11 9 10 15 19 17 13 14 16 18 19 15 18 19 19 20 17 16 16 15 14 14 13 12 12 11 11 11 11 10 10 10 10 10 10 10 9 8 6 4 5 4 5 7 5
12 8 6 5 2 1 1 2 5 6 6 8 9 10 10 11 13 13 13 16 16 18 21 23 26 31 36 39 43 43 32 22 19 18 18 18 17 14 13 12 12 12 11 11 12 13 15 17 17 16 16 15 14 16 19 19 17 14 11 10 11 13 17 15 15 15 14 16 17 15 15 16 15 15 13 13 13 13 14 14 15 14 13 13 12 13 13 13 13 11 10 6 5 4 3 6 6
12 9 6 5 3 2 1 4 6 6 6 7 8 8 7 9 11 11 12 16 16 17 21 24 28 32 36 39 43 42 29 20 19 19 19 20 18 15 15 14 12 13 13 13 14 16 19 21 20 17 16 17 16 17 18 16 15 14 11 10 11 11 12 14 15 15 12 11 15 15 14 13 13 12 11 9 9 11 14 15 15 14 13 13 12 10 9 9 10 10 9 8 5 3 2 4 6
12 10 7 5 4 3 2 4 6 6 6 7 7 7 5 7 10 12 14 16 15 17 23 27 29 32 36 39 43 40 27 19 20 19 19 20 19 17 16 14 13 13 14 14 15 17 19 22 21 18 17 18 17 15 13 12 12 11 10 12 15 14 12 14 16 16 14 11 13 15 14 13 12 9 6 5 4 6 12 14 13 12 11 13 12 10 7 4 4 4 5 5 4 3 3 4 7
12 10 7 5 4 3 3 5 7 7 8 7 5 6 5 7 10 12 14 14 15 20 25 28 30 32 36 39 43 40 26 19 20 20 20 20 19 17 16 14 13 13 14 14 14 16 18 20 20 18 17 19 19 17 15 13 12 10 9 11 17 17 12 13 16 15 15 14 12 13 15 15 15 14 9 3 1 1 7 11 10 10 9 10 10 10 7 4 4 3 3 3 1 1 2 4 6
12 10 7 5 3 3 3 5 7 6 8 7 5 6 6 7 9 11 13 13 16 22 25 27 30 32 36 38 43 39 25 19 19 20 20 19 18 17 16 15 13 12 13 14 14 16 16 17 17 16 15 16 16 15 15 14 12 11 9 10 14 15 11 10 13 14 13 12 10 9 11 14 15 15 13 7 5 5 3 7 6 7 7 5 7 7 4 3 6 4 3 4 3 2 2 4 5
13 11 8 5 4 4 4 5 6 5 7 5 3 4 4 7 9 10 11 12 16 21 23 26 29 32 35 38 43 38 25 19 19 20 20 19 18 17 16 16 14 13 14 14 15 16 16 16 15 14 14 14 12 11 12 12 12 14 13 10 10 10 9 7 9 12 12 11 11 9 8 12 15 13 10 5 4 5 4 5 3 5 7 4 4 5 3 3 5 4 4 6 5 2 3 5 6
14 11 8 5 4 5 5 4 4 5 6 4 3 3 4 7 8 10 11 12 17 20 22 25 28 31 34 38 42 37 25 19 20 20 20 19 18 17 16 17 16 14 14 15 15 16 16 16 14 13 13 12 11 11 12 14 15 16 16 12 9 8 7 6 7 11 11 10 15 16 12 14 16 14 10 5 2 3 1 3 2 4 6 4 4 4 3 4 5 5 6 8 7 4 5 7 7
14 11 8 7 6 6 5 3 2 4 4 3 2 4 6 8 8 9 11 13 17 20 21 25 28 31 33 37 41 38 28 19 20 20 20 20 18 18 17 18 17 15 15 15 15 15 15 15 14 12 13 13 13 13 14 16 17 17 16 13 10 8 7 7 8 11 12 12 15 17 15 14 15 15 12 7 3 4 3 2 1 4 4 4 4 2 5 6 6 6 7 8 8 7 8 8 7
16 12 9 6 6 7 5 3 1 1 2 1 2 6 8 8 6 6 11 14 17 17 19 25 28 30 33 36 39 40 31 20 20 21 21 21 20 19 18 18 17 16 15 15 15 15 15 15 14 14 15 16 16 15 15 16 17 17 16 15 13 11 10 9 10 10 12 12 13 13 12 12 13 14 12 10 7 5 4 4 2 4 5 5 6 9 8 6 6 6 6 7 8 8 9 9 7
18 14 10 7 6 6 5 3 2 2 3 3 3 6 4 4 4 6 10 12 15 15 18 24 27 29 31 35 38 40 34 23 19 21 22 23 21 20 19 18 18 17 16 17 17 17 16 16 15 15 17 17 17 17 16 16 16 16 16 16 16 15 14 12 11 10 11 11 11 12 10 9 11 12 11 11 10 7 5 4 3 4 6 6 8 9 6 4 4 5 6 6 7 8 9 10 8
18 13 9 8 6 5 4 5 6 2 4 3 3 2 1 4 6 7 8 8 11 13 18 24 26 28 30 33 37 39 37 26 19 20 22 23 22 21 20 20 20 19 19 20 21 20 17 16 15 15 17 17 18 18 17 16 16 16 16 17 17 17 16 15 14 13 12 11 11 11 11 10 11 12 12 12 12 8 7 5 3 3 4 5 5 5 4 3 4 5 7 5 5 5 7 10 10
18 13 10 8 6 6 5 5 6 3 4 2 2 2 2 4 4 7 7 5 8 13 18 23 25 27 28 31 35 37 38 29 20 19 21 22 22 21 21 22 21 22 23 23 24 21 17 15 14 14 15 15 17 17 17 17 16 15 15 15 15 16 16 16 16 15 13 11 11 12 12 12 13 14 13 12 12 10 8 7 5 3 4 3 3 4 4 5 6 6 7 4 2 2 5 9 11
19 15 12 11 9 9 7 7 7 6 6 4 3 4 3 3 4 7 7 5 8 14 18 21 24 25 27 29 33 36 37 32 22 18 20 21 21 21 22 23 23 23 24 25 25 22 17 14 13 13 13 13 15 16 17 17 17 15 14 14 14 15 16 16 17 17 16 14 13 12 12 13 15 15 14 11 11 10 8 6 5 3 3 3 4 5 5 7 6 5 6 5 3 4 5 8 10
21 17 15 15 13 11 11 11 10 8 9 7 7 6 5 4 3 4 5 7 11 15 17 20 23 23 25 27 30 34 36 34 26 18 19 20 20 20 22 23 23 24 24 25 25 23 18 14 13 12 12 13 15 16 16 16 16 16 15 14 15 15 15 16 18 19 17 16 16 14 12 13 14 15 15 12 9 9 7 5 4 1 1 2 4 5 6 8 7 6 6 5 5 7 8 10 11
25 21 18 16 15 13 12 13 11 9 10 10 11 8 5 5 4 6 8 10 12 14 16 19 21 21 23 26 28 32 34 34 29 20 17 18 19 19 21 23 23 23 23 24 24 23 20 17 14 13 13 13 14 16 16 15 16 17 17 16 17 17 16 17 18 19 18 17 17 16 13 12 13 15 17 13 10 9 7 5 4 1 2 1 4 6 7 8 8 7 7 5 4 7 9 10 12
27 24 22 18 16 14 13 15 14 12 10 9 9 6 5 5 5 8 9 10 13 15 16 18 18 19 21 24 26 30 32 33 31 22 16 16 18 18 20 22 23 22 22 23 23 23 21 19 16 14 14 14 14 16 15 15 16 17 17 17 17 18 18 18 18 18 19 18 16 16 15 14 14 16 18 14 11 10 8 6 5 2 3 3 6 5 5 7 8 7 7 6 5 6 8 10 12
29 28 24 21 20 16 12 13 17 15 11 9 8 5 4 4 6 9 10 11 14 13 14 16 15 17 20 22 25 27 30 32 31 25 16 14 16 17 18 20 22 22 21 21 22 22 22 20 18 16 16 15 14 14 14 15 16 17 18 18 18 19 19 19 18 18 19 18 17 18 18 16 15 16 17 14 13 12 10 7 5 4 2 5 6 6 7 9 9 7 6 6 5 5 6 9 10
33 30 23 21 23 20 15 14 16 15 13 10 8 6 4 5 7 9 10 10 10 12 15 13 12 16 19 21 24 26 28 30 30 27 17 12 14 15 16 18 20 20 20 20 21 22 22 21 20 18 17 16 15 14 14 14 15 17 19 19 18 19 20 20 18 16 18 18 18 20 21 18 16 17 17 14 13 13 12 9 6 5 3 4 6 7 9 10 10 8 6 6 4 3 4 5 6
34 31 24 23 24 22 20 17 16 15 14 11 7 5 3 5 7 9 10 9 9 13 15 10 12 17 18 20 22 24 27 28 28 28 21 12 11 13 14 16 17 18 19 19 20 20 21 21 21 20 17 17 17 15 15 16 17 18 19 19 19 19 20 19 16 14 17 19 20 22 21 20 16 16 17 14 13 13 12 10 9 6 6 5 3 5 8 9 10 7 6 5 5 5 6 5 4
37 34 28 28 27 23 21 19 18 16 13 11 10 7 6 6 6 8 10 9 11 13 12 9 13 17 17 19 21 23 25 26 26 27 23 14 9 10 12 14 16 16 17 18 19 20 20 19 20 20 19 18 17 17 17 17 18 19 19 20 20 20 20 19 17 15 18 20 22 22 21 20 16 15 17 15 12 12 12 11 10 8 7 7 6 6 8 10 10 8 7 6 6 7 7 7 7
41 36 31 32 30 26 23 22 22 20 16 14 12 10 10 8 7 8 9 8 10 12 12 12 15 16 17 18 20 22 24 25 25 25 24 17 9 7 10 12 14 15 16 17 18 18 19 18 18 19 19 18 17 18 17 17 18 18 19 20 20 19 20 20 18 18 20 21 22 21 20 19 17 17 17 16 13 12 12 12 12 8 6 5 6 6 8 9 9 8 7 6 8 7 7 8 10
43 39 34 33 31 29 26 24 24 22 20 16 13 13 13 11 9 10 9 9 11 13 13 14 15 16 17 18 19 21 23 23 23 23 23 19 11 6 7 9 11 14 15 16 16 17 17 17 16 17 18 17 17 18 18 18 19 19 19 20 19 19 19 20 19 20 22 21 21 20 20 19 19 20 19 17 16 13 13 13 11 9 6 4 4 5 6 7 6 6 7 8 9 7 6 8 10
46 42 38 35 32 29 27 27 26 24 22 19 16 15 15 13 12 12 12 13 14 13 12 15 16 17 17 17 18 19 21 22 21 21 21 20 14 7 6 7 9 11 14 14 15 15 16 16 16 16 16 16 17 17 17 18 18 19 20 20 20 19 18 20 21 22 22 21 21 21 20 19 20 21 20 18 16 14 13 12 10 9 6 4 3 4 5 5 4 6 8 9 9 7 7 8 9
47 45 41 37 32 30 28 27 26 25 23 20 19 18 17 16 15 14 14 14 14 13 14 17 17 17 17 17 17 18 19 20 19 19 19 19 16 9 5 6 7 9 12 13 13 14 15 16 16 16 16 15 16 17 16 16 17 18 20 20 21 19 18 20 22 23 22 20 21 23 21 20 21 21 21 19 15 13 11 11 11 9 7 6 7 6 6 7 7 8 8 9 9 6 7 10 11
49 47 44 39 34 32 33 30 28 26 23 19 19 21 20 18 17 16 15 13 14 14 15 16 17 17 16 15 15 16 17 18 18 17 17 18 17 11 5 5 6 8 9 11 12 12 13 14 15 16 17 15 15 15 15 15 16 18 20 21 21 20 19 20 21 21 21 21 22 23 22 21 22 21 22 20 16 15 12 12 12 11 10 9 10 10 9 9 10 10 9 9 8 7 10 11 11
52 50 46 42 37 35 36 34 31 30 26 22 19 20 21 20 19 18 16 14 16 17 16 16 16 15 13 13 14 14 15 16 16 15 15 16 16 13 7 4 5 6 8 9 10 10 10 12 13 15 17 16 14 13 13 13 15 17 20 22 22 21 20 20 21 21 21 21 22 23 22 22 23 22 21 21 19 17 15 14 13 13 12 11 11 12 11 11 11 9 8 8 8 9 11 11 10
54 52 49 45 40 36 38 36 32 31 30 28 25 21 19 18 20 19 17 16 17 19 18 18 18 15 13 13 13 12 13 14 14 13 13 14 15 13 8 5 5 6 7 8 9 9 9 11 12 13 15 16 15 14 13 12 13 16 20 22 22 22 20 20 21 22 22 22 22 24 23 23 23 22 20 20 19 17 15 15 14 13 13 12 13 15 16 15 12 9 8 8 9 10 10 9 10
53 52 51 48 43 38 39 39 34 32 32 31 29 25 21 19 21 22 20 17 18 19 20 21 20 16 15 13 11 11 12 13 13 12 12 13 13 13 9 6 5 6 7 8 8 8 8 9 11 12 13 14 15 14 14 13 13 15 19 21 22 19 16 18 20 22 23 24 23 24 24 25 24 22 20 19 19 18 16 14 12 11 12 13 16 18 17 16 13 11 9 9 10 11 9 8 10
55 54 53 51 49 43 40 40 37 34 34 33 31 28 27 24 22 22 20 17 17 19 22 22 19 17 16 13 10 10 10 11 12 11 11 12 12 12 10 6 5 6 8 9 9 8 8 8 9 11 12 13 14 14 14 14 13 15 17 18 20 18 14 17 20 21 23 24 24 24 25 26 26 25 24 23 23 23 21 16 13 12 14 16 18 19 18 17 16 14 13 11 10 11 11 9 10
58 57 55 54 52 48 45 43 40 38 36 35 34 32 31 28 24 23 19 17 17 20 22 20 18 16 14 11 9 9 9 10 11 10 11 11 11 11 9 7 4 5 8 10 9 8 7 7 9 10 12 12 13 13 14 14 13 14 15 15 16 17 16 18 19 20 22 23 24 25 26 27 28 28 29 30 30 30 27 23 20 18 17 18 18 17 17 19 20 20 19 16 12 12 13 12 12
60 58 57 55 53 49 48 47 43 41 39 37 36 35 32 29 27 25 21 18 17 18 19 18 16 13 10 9 9 8 8 10 11 10 10 11 11 10 9 7 4 3 6 9 10 8 7 7 8 9 11 11 12 12 12 13 12 13 14 15 14 15 17 18 19 20 22 23 24 26 26 27 28 29 32 36 36 35 33 29 25 22 19 18 17 16 16 19 21 22 23 21 18 16 16 17 16
60 59 57 56 54 51 50 50 47 43 41 39 37 36 34 31 29 26 22 20 18 17 17 17 15 12 9 10 9 7 8 9 10 11 10 11 11 10 8 7 5 2 3 5 9 9 7 6 7 8 9 10 11 11 11 12 12 12 13 14 14 14 16 17 18 20 21 22 24 25 25 25 25 27 30 33 35 36 35 34 30 25 21 19 19 18 19 19 20 20 22 24 23 23 22 21 19
60 59 58 56 56 54 52 51 49 46 44 42 39 37 36 34 32 28 23 22 20 18 17 16 15 13 10 10 9 7 7 8 9 10 10 10 11 10 8 7 6 4 2 2 5 8 7 5 6 7 8 9 10 10 10 11 11 11 12 12 13 14 16 17 18 19 20 22 23 24 24 23 22 22 24 26 28 29 31 32 31 29 26 24 23 23 23 22 22 21 22 23 24 25 25 24 22
61 60 59 58 57 57 55 53 51 49 47 46 43 39 38 37 34 30 26 23 21 18 17 15 15 14 11 10 8 6 7 9 9 9 9 10 10 10 8 7 6 5 3 1 3 6 6 5 5 6 6 7 8 8 9 10 10 11 11 11 12 13 15 17 17 18 20 21 22 23 23 22 21 21 21 22 22 23 24 26 27 27 27 26 25 26 26 25 25 24 23 23 23 23 23 24 23
62 61 61 61 60 60 59 55 53 52 50 50 46 42 40 37 35 32 28 25 22 20 18 19 17 15 12 11 10 9 9 9 9 9 9 9 9 9 9 7 5 5 4 2 1 3 5 4 4 5 5 6 7 7 8 9 10 11 11 11 12 12 13 15 16 17 19 20 21 22 22 22 21 21 22 22 22 21 21 22 22 23 24 24 24 25 25 25 26 26 26 25 23 22 21 21 22
64 63 62 62 64 63 62 59 56 54 52 52 49 46 43 38 36 34 29 27 23 19 21 23 18 15 14 15 15 14 13 11 10 9 8 8 8 8 7 6 5 5 4 2 1 2 4 4 3 4 4 5 6 6 7 8 9 10 11 11 12 12 13 13 15 16 18 19 19 20 21 21 22 22 22 23 23 22 22 21 21 22 22 22 22 22 23 23 24 26 27 27 25 24 23 21 21
65 63 62 63 65 65 64 63 60 56 54 53 50 49 47 42 38 35 31 28 24 21 23 21 16 15 19 20 18 16 15 13 11 10 9 8 7 7 6 6 5 4 4 3 1 2 2 3 3 3 3 4 5 6 7 8 9 10 10 10 11 11 11 12 14 15 16 18 19 20 20 20 21 22 22 23 23 23 22 23 23 23 22 22 22 22 22 22 23 24 25 26 26 26 25 24 22
68 65 64 65 66 65 65 63 61 58 56 56 53 50 49 44 40 37 34 30 26 25 23 18 16 20 25 22 18 17 16 15 14 12 10 9 8 7 6 5 4 4 4 4 2 2 2 1 1 2 2 3 4 7 8 8 8 9 10 9 9 9 9 11 13 14 16 17 17 19 19 20 20 21 21 22 22 22 22 23 23 24 24 23 23 22 22 21 22 22 23 25 25 26 27 26 24
69 67 68 67 65 65 64 63 62 59 58 58 55 52 50 47 43 39 37 34 30 28 24 21 23 25 24 21 19 17 16 17 17 14 11 10 9 8 7 5 4 4 4 3 3 3 4 2 0 1 1 2 4 7 8 9 9 9 9 9 8 9 9 11 12 13 15 16 16 18 19 19 20 20 21 21 21 21 22 23 23 24 24 24 23 23 22 22 22 22 23 24 25 25 26 26 26
69 70 71 70 68 67 66 64 63 61 60 59 57 54 53 51 47 42 40 39 36 30 26 27 28 26 23 22 20 19 19 18 17 13 11 10 9 8 8 7 5 4 4 3 3 2 5 4 2 1 1 2 4 7 8 8 9 8 8 9 9 9 9 10 10 12 13 14 15 16 17 18 19 20 20 20 20 20 21 22 22 23 23 24 24 23 23 23 22 22 23 24 24 25 24 25 26
72 76 76 75 73 72 69 66 62 60 59 58 57 55 55 54 51 47 44 42 40 35 30 31 29 25 25 23 20 21 22 19 17 14 12 10 9 9 9 9 7 4 4 3 3 3 4 6 4 3 1 2 4 6 8 8 8 7 7 8 8 8 8 9 9 10 11 13 14 15 15 17 18 19 19 19 19 19 19 20 21 22 22 23 23 24 24 23 23 23 23 23 24 24 24 23 25
77 80 79 78 77 75 71 66 62 60 58 57 57 57 57 55 52 50 48 44 41 38 35 35 32 28 26 24 21 22 22 19 18 17 14 11 10 9 9 10 8 5 4 4 3 3 4 6 6 5 3 2 5 6 7 7 7 6 6 6 7 8 7 8 8 8 9 12 13 13 14 15 16 17 18 18 18 18 18 18 19 20 21 22 22 23 23 23 23 23 23 23 23 23 23 23 23
79 81 81 81 79 76 71 67 65 62 60 59 58 59 59 56 53 52 51 47 44 40 37 37 35 32 30 27 25 26 25 21 20 20 17 13 13 11 9 9 9 7 5 4 5 4 4 5 7 7 4 3 5 7 7 7 6 6 6 5 6 7 7 7 7 7 8 10 12 12 12 13 15 16 17 18 18 17 17 17 17 17 18 20 21 22 22 22 23 23 23 22 22 22 22 22 22
80 82 82 82 80 76 73 70 68 65 64 62 61 60 59 56 54 54 54 52 50 47 43 39 37 36 35 33 32 31 30 26 23 24 23 18 16 14 12 10 9 8 7 6 6 5 4 5 6 8 6 4 6 8 8 8 7 6 6 5 5 6 7 7 7 7 7 8 10 11 11 11 12 14 15 16 17 17 17 16 16 16 16 17 18 19 20 21 22 22 22 21 21 21 21 21 21
81 81 79 79 77 76 76 73 70 68 67 65 62 61 59 56 54 55 56 56 54 54 51 46 43 43 41 40 38 35 33 31 26 25 27 24 19 17 15 13 11 9 8 8 7 6 5 5 6 8 8 5 5 8 9 8 7 6 5 5 6 5 5 6 7 6 6 6 7 8 9 10 10 11 13 14 15 16 17 16 16 16 16 16 16 17 18 19 19 20 21 20 20 20 20 20 20
81 78 76 76 75 76 76 73 71 71 70 68 66 64 62 58 56 56 57 56 55 54 53 49 47 47 45 42 40 37 35 33 29 26 28 26 21 19 18 16 14 12 11 10 8 7 6 6 6 7 9 7 5 8 10 9 7 5 5 5 6 5 5 5 6 6 6 5 5 6 7 8 8 9 11 12 14 15 16 16 16 16 16 16 15 15 15 16 17 17 18 18 19 19 18 18 18
79 76 75 75 76 77 75 73 73 72 71 70 69 68 66 62 60 59 57 56 55 54 54 52 50 49 47 43 39 37 35 34 31 30 30 27 23 22 20 19 18 15 14 12 10 9 8 8 7 7 9 9 6 8 11 10 7 5 3 3 4 6 5 4 4 4 5 5 4 4 5 6 6 7 8 10 12 13 14 15 16 16 16 16 15 15 15 14 14 15 15 15 16 16 16 16 16
80 78 76 75 76 76 74 73 74 73 71 71 71 71 69 66 64 62 59 56 55 54 52 51 52 51 48 45 40 37 37 36 36 35 33 29 25 23 21 19 17 18 17 15 13 12 11 10 9 8 9 11 9 8 11 12 9 6 4 1 2 4 5 5 4 3 3 4 4 3 4 4 5 5 6 8 10 11 12 14 15 16 17 16 16 15 15 14 14 14 13 13 13 13 13 14 14
83 80 77 75 75 74 73 73 74 73 72 73 73 74 72 68 66 64 62 58 58 56 50 48 51 51 49 47 43 38 35 36 37 35 33 29 24 21 20 18 19 19 18 17 16 14 13 13 11 10 11 12 12 9 11 13 12 9 6 3 1 2 4 5 4 3 2 3 3 3 3 3 3 4 5 6 8 9 10 11 13 14 16 16 16 16 16 15 14 14 13 13 12 11 11 11 11
86 83 80 78 76 75 74 73 73 72 73 74 76 76 73 70 68 66 64 63 61 60 57 54 54 52 50 48 45 40 37 38 37 33 31 29 25 22 22 21 21 22 20 19 18 16 15 14 14 13 12 13 14 13 11 13 14 12 9 6 4 2 1 3 4 3 2 2 2 2 2 2 2 3 4 5 6 7 8 9 11 12 14 15 16 17 17 16 15 15 14 13 12 12 11 10 10
87 85 82 81 79 78 77 75 73 74 75 75 77 77 74 72 70 68 66 67 66 64 62 59 58 58 55 51 47 44 42 41 39 37 35 33 30 27 26 24 23 23 22 20 18 17 16 15 16 15 14 14 16 16 15 14 15 14 12 10 7 6 4 2 2 3 3 2 2 2 2 3 2 3 3 4 5 5 6 7 8 10 11 13 15 16 17 17 16 16 15 14 13 13 12 11 10
87 86 83 83 82 80 79 78 77 79 77 75 77 76 72 71 71 70 69 68 68 67 64 60 58 59 58 55 51 47 44 42 41 41 39 35 33 31 30 29 27 25 24 21 18 17 17 17 17 17 16 16 16 17 17 16 16 16 15 13 10 9 7 4 3 4 3 2 2 3 3 3 3 3 4 5 5 5 5 6 7 8 9 11 12 14 15 16 16 16 15 14 14 13 13 12 11
89 87 87 88 86 84 83 81 80 80 77 76 76 73 71 71 71 71 71 71 69 66 65 64 61 59 57 55 53 49 45 43 42 44 42 37 34 32 31 32 30 28 27 23 19 17 18 19 19 19 18 17 16 17 17 17 17 17 17 16 13 11 10 8 6 5 4 4 3 3 4 4 4 4 4 5 6 6 5 6 6 7 7 9 10 11 12 13 14 15 15 15 14 14 13 12 11
91 89 90 90 90 88 85 82 80 78 77 76 74 71 71 74 73 72 71 71 70 66 65 66 66 64 60 57 55 51 47 46 46 46 46 43 38 34 33 33 33 32 29 24 20 19 21 21 19 19 19 18 18 17 16 16 16 16 17 17 16 14 12 10 9 8 7 6 5 4 5 5 6 5 5 6 7 7 6 6 6 6 6 7 8 9 10 10 11 12 13 14 14 13 13 12 11
93 89 89 90 92 90 86 83 80 78 77 77 73 70 71 74 75 73 72 70 69 66 67 68 68 67 65 63 62 57 54 52 50 50 50 48 44 39 37 36 36 36 34 30 25 23 23 22 19 19 19 18 19 18 16 15 15 15 16 17 17 17 15 13 11 10 10 9 7 7 6 6 7 7 7 7 7 8 8 7 6 6 6 6 6 7 8 8 9 10 11 12 13 13 12 12 11
96 93 92 94 96 93 88 85 83 81 79 78 76 72 72 74 75 75 72 71 69 67 69 70 69 69 68 67 66 63 61 59 55 52 51 49 47 44 40 39 39 39 37 33 28 26 26 23 20 20 19 19 20 19 17 16 16 15 15 16 17 18 18 17 15 13 12 11 10 9 8 8 8 8 8 9 9 9 9 9 8 7 6 6 6 6 7 8 8 9 10 10 11 12 12 11 11
100 97 96 96 96 93 89 85 84 83 83 83 80 76 74 75 77 76 73 71 70 69 70 69 69 69 68 68 67 65 64 61 58 56 53 51 49 45 42 42 41 41 41 36 30 28 28 26 23 22 21 21 20 19 18 16 16 16 16 16 17 18 18 18 18 17 16 14 13 12 11 10 10 10 10 10 10 10 10 10 10 9 8 7 7 7 7 8 8 9 9 10 10 11 11 11 11
Wind_Direction
165 159 155 158 147 134 335 332 28 63 88 65 50 53 51 37 25 22 11 2 1 356 353 349 348 346 347 349 350 353 353 354 2 10 14 16 23 29 32 30 35 37 30 21 19 20 23 32 37 40 40 39 39 38 58 77 82 80 83 86 77 59 45 53 63 61 60 61 69 79 83 88 94 99 109 115 114 110 107 109 109 108 108 113 113 107 104 102 98 83 80 108 139 122 61 58 53
169 168 162 164 143 109 343 17 69 80 77 59 52 58 52 36 26 21 5 353 352 349 349 346 347 346 348 352 353 356 357 1 14 24 25 30 35 38 39 38 42 39 36 33 38 49 54 57 56 56 54 55 63 77 87 87 78 67 74 87 79 52 38 47 57 51 50 59 66 78 89 91 97 100 108 117 119 113 104 103 101 98 99 103 105 103 103 105 98 82 73 79 114 121 33 19 19
167 170 166 169 159 168 103 65 83 83 72 62 65 71 40 33 32 14 359 349 348 349 348 345 346 347 350 354 357 359 2 10 21 29 32 35 39 44 44 43 47 44 44 49 56 61 61 60 59 64 67 69 77 89 95 94 82 66 64 61 51 49 51 55 53 43 44 68 72 75 84 87 95 101 106 115 130 124 110 107 103 96 95 100 101 102 105 107 102 87 74 67 72 92 45 11 9
171 170 167 169 169 178 120 92 90 84 78 65 65 87 59 39 29 7 359 351 349 350 347 346 348 349 354 357 0 3 6 16 24 32 35 36 40 44 46 49 51 49 49 52 56 55 56 57 58 67 74 75 77 82 89 88 74 67 74 66 54 61 73 62 48 43 51 74 83 74 73 75 76 81 94 109 140 142 123 113 108 106 105 105 96 97 106 110 114 96 88 80 53 52 37 359 354
176 173 168 173 181 167 99 91 91 82 78 69 64 84 62 36 24 6 1 357 355 350 347 349 350 353 358 0 3 5 9 20 27 33 35 36 40 42 45 46 46 48 43 43 47 48 51 54 58 67 74 74 69 66 66 57 44 54 82 78 62 61 73 61 43 46 58 72 85 74 68 67 59 57 56 47 12 79 133 122 114 115 115 120 107 99 104 109 130 131 145 140 96 30 357 325 328
180 180 176 174 159 131 81 76 80 74 71 64 43 52 40 27 22 5 4 6 358 350 350 352 352 357 1 3 5 8 11 23 31 34 34 35 39 41 41 38 36 35 28 32 39 42 45 49 55 63 73 73 66 61 61 56 42 42 61 77 68 61 66 57 44 57 74 82 89 81 72 66 54 53 51 37 23 21 96 121 115 119 112 141 143 113 98 125 149 147 168 186 213 270 300 291 291
184 186 180 183 168 123 76 69 73 77 80 70 45 52 28 17 15 6 6 6 358 351 352 354 355 0 4 5 7 11 14 24 32 34 33 32 35 36 32 26 24 20 17 24 31 34 37 41 46 55 66 69 68 66 60 57 47 41 50 73 82 70 66 57 50 64 83 90 70 64 83 72 58 54 52 34 11 18 65 84 78 134 117 138 186 141 125 171 179 173 195 212 224 241 228 244 256
188 190 174 170 170 124 89 88 88 89 91 82 67 62 23 7 2 2 359 357 354 351 354 357 360 4 6 6 9 13 14 22 33 35 32 30 31 28 21 16 15 13 15 21 25 29 30 31 35 44 56 61 63 61 53 49 47 48 55 74 88 79 70 60 53 63 84 88 58 52 67 69 61 54 45 31 340 321 10 62 66 153 139 147 175 154 175 223 224 201 205 216 217 205 194 218 238
186 193 182 157 139 131 117 121 114 97 87 69 39 34 18 0 2 4 355 350 348 351 357 0 3 7 8 7 10 14 14 20 32 34 31 28 27 22 15 11 10 11 17 20 21 24 25 26 30 35 42 47 50 51 49 48 50 53 59 68 74 70 67 53 48 68 84 83 61 53 56 57 58 52 42 36 8 315 294 281 142 151 170 186 188 245 264 257 245 220 216 215 215 218 210 216 239
184 194 201 181 147 147 140 130 166 125 59 20 8 30 17 359 15 7 349 344 346 354 1 2 6 9 8 8 9 13 15 20 30 32 30 27 25 21 17 15 13 15 19 19 21 25 26 28 32 36 37 39 43 47 48 49 51 54 58 61 63 62 60 50 48 68 77 72 63 55 52 51 52 49 42 37 22 353 317 279 243 186 209 236 258 282 286 268 242 227 229 225 221 223 221 225 238
190 195 190 186 172 156 146 155 207 275 318 300 354 34 26 340 336 347 354 347 350 1 1 3 7 7 7 8 8 13 16 19 27 31 29 27 26 24 24 27 25 25 26 25 27 29 30 33 37 40 39 38 45 52 53 50 50 52 54 54 55 55 53 50 47 55 62 60 56 53 52 52 50 45 40 34 24 11 352 313 274 240 239 258 271 275 276 266 246 237 245 242 231 222 221 224 224
198 203 186 187 194 181 180 183 183 237 302 308 341 14 324 315 324 356 17 353 353 6 1 4 6 5 6 6 8 12 16 19 24 29 30 29 29 29 30 34 34 34 34 33 34 33 34 40 42 42 42 46 53 58 57 52 51 52 50 48 48 49 50 49 42 42 46 44 44 49 49 49 47 39 36 26 17 12 3 353 327 287 277 275 269 261 261 295 299 286 280 263 239 227 223 221 218
198 208 201 201 212 203 215 215 178 191 274 305 311 250 284 335 348 3 12 358 358 2 359 3 3 4 5 5 7 11 16 19 22 26 29 31 31 33 33 35 37 37 37 38 39 40 43 50 49 45 47 53 56 56 55 50 49 49 47 44 43 42 45 45 40 36 34 34 35 40 42 41 37 32 29 20 13 10 6 7 6 349 340 332 296 283 288 304 301 305 304 279 223 201 225 232 231
199 208 203 194 205 194 194 234 209 196 230 248 270 252 252 292 346 357 2 3 357 356 357 0 1 2 3 4 6 9 14 18 21 24 27 32 33 33 32 33 36 38 39 42 45 46 50 58 56 48 48 50 50 50 49 45 42 44 43 40 40 39 38 39 36 33 33 31 29 32 36 31 28 27 23 16 13 9 6 10 16 6 352 340 322 320 302 288 287 300 302 283 234 187 206 230 233
199 212 209 192 203 192 180 218 226 211 217 232 254 255 240 248 312 329 321 323 339 352 354 355 357 0 2 3 6 8 13 17 20 20 24 31 34 33 31 31 35 38 40 44 48 50 51 54 53 50 49 48 46 42 39 39 38 37 37 36 38 36 32 31 31 31 30 28 28 31 30 22 22 22 15 14 14 7 5 11 19 21 15 346 321 318 301 292 297 298 286 278 235 201 205 215 216
195 212 216 200 206 202 191 208 217 219 216 223 239 243 238 247 267 275 292 312 328 342 345 348 353 358 1 3 5 7 11 15 19 20 21 27 34 33 30 31 33 37 41 45 49 50 51 49 50 53 52 51 44 36 33 35 35 34 34 34 33 30 27 27 27 28 27 25 27 28 24 17 16 10 7 11 11 6 9 17 19 57 161 325 316 294 289 295 299 297 289 282 241 216 220 223 227
197 212 213 207 214 209 208 213 212 218 220 223 231 230 246 263 277 287 301 315 319 328 338 342 349 357 1 3 4 5 9 13 17 20 19 22 30 35 33 32 32 37 41 45 49 50 50 49 50 52 52 49 38 32 31 33 36 36 35 33 30 28 25 24 26 28 26 26 26 25 21 14 10 5 4 6 5 7 13 19 21 31 197 255 316 305 295 308 306 300 290 277 262 245 238 238 241
203 210 208 215 224 213 210 219 215 219 230 233 231 234 262 294 307 303 309 314 314 322 333 337 348 359 360 2 3 4 7 11 15 19 20 20 26 33 36 34 33 37 40 44 47 48 49 49 50 49 47 46 38 33 32 34 39 40 38 36 32 29 27 25 28 28 25 27 25 22 17 12 11 10 10 10 7 7 12 21 16 2 257 266 303 317 320 330 332 329 320 305 287 265 255 256 254
206 208 205 215 220 214 216 222 216 222 233 228 224 232 270 308 304 302 307 312 316 327 332 334 351 358 359 1 1 3 5 8 13 17 19 19 23 30 35 35 34 37 39 42 43 44 47 48 51 49 44 45 44 40 39 40 42 42 41 39 33 28 28 28 33 32 27 27 22 17 13 12 18 18 14 11 9 8 12 19 10 358 342 297 295 316 327 336 341 342 345 347 332 303 294 283 270
205 208 205 210 211 209 218 223 217 221 224 219 222 231 275 298 294 296 301 308 316 324 326 333 352 355 357 358 359 0 2 5 10 15 18 16 20 28 32 33 34 36 39 41 40 39 41 45 50 50 45 45 47 46 45 43 42 43 43 44 38 30 30 32 39 38 29 26 19 14 12 14 22 21 12 7 8 9 8 13 16 20 19 5 346 353 1 1 360 0 359 353 339 317 306 303 298
204 210 208 211 213 212 219 226 224 222 223 234 245 256 279 279 284 293 299 312 315 316 316 327 345 349 351 352 356 357 358 2 6 12 17 16 13 24 30 31 30 33 37 38 38 35 34 39 45 47 46 46 49 50 49 45 42 42 43 46 43 37 36 35 38 36 29 26 20 16 13 15 23 21 14 12 12 9 9 14 16 13 17 32 36 25 23 15 10 10 5 351 340 327 308 304 305
204 208 209 211 215 218 223 229 232 230 233 248 254 261 272 272 280 290 299 308 304 305 306 314 332 340 342 345 349 352 354 358 4 8 15 18 11 9 21 27 27 28 32 35 36 34 31 34 40 43 43 43 47 49 49 48 44 43 42 45 46 42 40 39 38 36 33 29 23 19 14 16 22 21 18 21 21 16 14 17 16 8 5 24 28 25 20 11 7 3 357 346 335 325 303 299 304
203 206 208 210 213 219 225 230 232 230 232 243 255 258 260 268 275 274 278 280 282 293 297 306 322 329 334 338 342 348 350 354 1 5 11 17 15 0 5 17 24 23 26 31 35 35 33 35 41 42 40 42 45 45 47 47 44 44 43 46 48 46 45 44 42 40 39 35 29 23 18 20 20 18 21 27 30 23 14 12 12 6 358 358 15 34 21 3 356 341 337 337 333 325 312 315 318
204 207 208 209 212 218 225 229 229 227 228 238 253 253 251 259 261 260 267 276 282 290 294 305 317 322 325 331 336 343 347 351 359 3 7 15 17 8 360 5 16 21 21 24 31 36 36 40 45 44 41 41 42 42 44 45 43 41 41 45 47 50 52 46 42 41 40 38 35 29 26 25 20 17 20 27 33 26 11 6 8 8 10 12 35 55 27 2 344 343 350 353 357 352 343 349 348
207 209 210 210 212 216 221 224 225 224 227 240 254 256 253 255 254 256 268 279 283 285 293 304 311 316 320 324 331 341 346 348 355 2 4 11 17 17 8 7 9 16 20 19 25 34 39 43 46 45 42 42 42 38 39 43 42 39 39 39 41 47 51 44 38 38 40 40 37 34 33 30 23 19 17 22 30 22 5 8 22 30 41 43 38 34 17 10 9 15 17 15 23 20 9 10 3
209 211 212 212 212 218 222 225 226 223 223 235 254 262 255 249 252 258 267 275 276 281 293 301 308 314 317 322 331 340 346 348 353 0 3 7 16 21 20 14 8 11 17 17 19 29 39 43 43 42 41 45 46 36 35 41 41 40 39 38 41 46 47 44 42 41 42 42 38 37 39 35 30 23 16 17 17 9 6 21 36 43 53 55 40 23 14 22 26 27 26 19 22 18 16 17 11
210 211 213 213 214 220 224 226 227 223 219 222 239 257 253 246 251 258 261 265 270 279 288 294 304 311 314 324 334 340 346 349 352 358 2 5 13 22 29 20 10 9 14 15 13 19 33 39 37 35 37 43 46 38 38 42 43 43 40 39 41 42 40 41 45 47 46 43 40 40 41 40 36 27 18 14 11 9 14 27 40 43 47 50 40 33 35 40 36 28 24 15 14 23 24 26 31
210 211 213 212 215 222 222 222 223 220 218 218 226 243 247 243 248 254 257 261 269 276 281 287 294 297 300 317 332 339 346 348 352 356 0 5 10 19 31 32 16 10 14 16 9 10 22 34 34 30 31 37 40 41 44 45 47 47 44 44 43 37 31 34 42 48 48 47 45 43 42 43 40 34 25 19 19 25 31 35 38 38 41 43 41 44 45 43 38 26 30 32 26 38 45 43 47
211 213 214 212 215 220 220 220 220 217 218 220 225 236 242 244 251 254 256 262 270 275 278 282 285 283 286 304 323 336 344 347 351 354 357 4 9 14 27 41 30 18 17 15 9 7 13 26 31 28 28 32 36 39 41 44 49 50 48 51 52 45 32 31 40 46 49 50 49 47 47 47 45 43 39 34 38 48 57 55 44 40 45 48 47 48 48 46 42 32 47 59 40 44 64 69 66
213 215 214 212 215 220 223 223 222 219 221 223 225 233 241 246 251 253 256 260 265 273 276 275 276 274 281 295 313 330 340 344 347 352 355 1 7 11 19 38 44 29 22 15 8 7 8 18 26 27 28 30 34 36 38 41 47 50 49 54 60 57 43 37 43 46 49 53 53 53 54 53 50 50 51 52 56 63 71 77 75 70 70 66 60 56 54 57 59 57 69 76 59 63 83 87 86
213 215 214 213 216 221 225 225 224 221 222 225 227 230 238 243 245 247 254 257 262 274 271 267 271 274 281 295 307 322 333 338 341 345 351 356 2 9 12 26 48 40 29 18 9 6 7 15 22 26 29 31 33 35 38 41 46 50 49 53 57 52 44 43 47 48 49 53 55 58 61 61 58 58 59 61 64 67 71 77 82 86 89 85 76 68 64 66 67 68 77 85 84 84 90 94 97
214 215 214 214 217 221 225 226 225 223 219 223 228 230 234 240 241 245 249 250 260 269 262 262 270 272 283 302 308 314 323 331 334 337 345 351 356 3 7 13 32 44 33 21 12 8 8 18 26 27 31 33 34 36 39 42 48 51 48 49 52 48 44 44 48 50 50 53 56 60 65 67 65 64 65 65 65 67 69 73 78 85 91 89 81 75 70 70 70 70 76 84 88 87 87 92 93
216 217 216 217 218 220 224 225 225 224 219 221 228 231 234 236 237 242 243 244 252 258 259 263 262 261 281 306 311 308 314 323 326 329 336 344 349 355 0 4 12 26 31 20 12 8 5 18 31 34 35 36 36 38 41 44 49 54 50 51 53 52 51 47 49 51 51 54 57 62 68 70 69 67 66 64 63 64 67 69 73 78 81 80 77 73 70 70 72 74 76 79 82 83 85 91 91
217 218 219 219 220 221 223 224 223 223 223 224 227 230 233 234 236 239 240 245 251 253 259 260 255 258 278 305 313 309 312 316 317 321 328 337 342 346 351 356 1 359 1 16 11 6 3 14 32 41 43 42 40 42 46 48 53 58 56 54 56 60 60 54 52 53 53 55 57 62 68 70 69 65 62 61 59 59 63 67 71 74 75 74 73 72 70 71 73 74 77 78 79 81 85 90 92
218 219 220 221 223 224 225 225 224 224 225 226 226 227 230 233 236 237 238 245 249 248 244 233 242 262 278 298 305 302 308 307 305 310 318 328 335 339 341 345 352 352 351 16 26 10 5 16 37 47 51 48 45 46 53 56 60 63 60 57 58 63 64 58 54 56 55 56 57 61 65 68 65 62 60 59 57 56 59 63 67 71 72 73 73 72 70 71 73 73 74 77 79 81 84 89 92
218 218 219 220 222 224 225 225 225 225 226 226 225 226 228 230 233 236 235 238 242 238 218 199 218 253 267 283 288 287 299 299 293 298 305 317 325 332 335 336 342 346 345 1 75 31 13 20 44 54 59 57 52 51 58 65 68 71 69 64 61 62 65 61 57 57 57 57 58 61 63 65 64 62 61 61 60 59 59 61 63 66 68 71 72 73 72 72 74 75 74 76 80 81 81 86 91
218 219 219 220 221 222 224 224 224 225 225 225 225 225 227 226 229 234 230 230 234 221 198 191 205 233 248 266 274 274 286 289 282 286 292 301 311 321 330 330 330 336 338 336 116 72 27 21 42 62 68 65 61 58 61 68 74 76 75 73 71 70 70 68 64 62 62 60 59 61 62 64 65 64 64 64 64 64 63 63 63 65 67 70 72 73 75 75 74 76 77 78 79 81 80 81 86
219 220 220 221 223 222 223 224 224 224 225 226 225 224 226 226 228 229 223 225 227 208 198 195 196 220 242 258 264 262 272 277 272 279 281 283 294 304 318 325 318 320 328 324 238 142 61 21 32 66 79 80 73 71 69 70 76 80 80 80 80 80 76 73 71 69 68 64 61 61 62 63 65 66 66 66 66 66 66 67 67 67 69 72 74 75 77 78 77 77 78 79 78 80 80 80 83
218 219 220 222 223 224 224 224 224 225 226 227 226 225 226 225 225 226 224 225 221 208 207 203 197 219 236 246 246 248 259 262 263 274 273 272 283 290 301 316 313 305 311 324 298 196 145 49 30 70 90 100 88 81 78 75 77 82 85 84 84 81 77 77 78 74 70 67 64 62 62 62 64 66 66 66 67 67 67 68 69 69 70 72 74 77 79 80 80 80 80 80 79 80 81 82 83
218 219 221 223 223 225 225 224 224 224 226 227 226 225 226 224 221 225 229 227 218 211 208 205 206 215 226 233 234 241 252 257 263 266 261 266 275 282 292 299 301 301 298 315 314 231 184 155 89 129 108 118 109 95 87 84 83 83 86 86 85 82 77 79 81 78 72 69 66 64 63 62 62 64 66 66 66 67 67 68 70 71 71 72 74 76 78 79 80 81 82 82 81 80 81 83 83
219 221 222 223 223 224 224 224 224 224 225 227 227 226 227 225 221 223 229 227 223 221 212 209 213 213 219 227 230 239 250 257 263 255 249 263 269 275 287 286 287 296 292 293 307 258 201 187 196 211 173 139 131 111 99 95 92 92 91 89 90 89 85 83 83 81 79 74 69 65 63 62 61 62 64 65 66 67 67 68 69 71 72 73 74 75 76 77 79 81 82 83 83 81 81 83 84
220 221 222 222 222 222 223 223 223 224 226 227 227 226 226 226 222 221 227 227 226 226 219 214 215 214 219 229 236 240 243 252 260 250 245 259 264 270 275 277 284 289 291 282 276 267 219 199 200 219 214 158 151 129 113 105 101 100 98 97 98 99 98 94 92 88 84 78 73 66 62 61 61 61 62 63 65 66 68 69 70 71 73 74 74 75 75 76 77 80 82 83 84 83 83 83 84
220 221 221 222 223 223 222 222 222 223 225 226 226 226 226 225 223 221 223 224 223 224 222 218 217 218 224 231 236 236 236 246 255 248 247 258 262 267 266 271 282 281 284 278 257 264 245 213 201 211 223 184 168 150 129 115 107 102 97 97 99 102 103 100 97 91 84 80 75 67 62 60 60 59 59 59 60 63 66 68 71 72 73 74 75 76 76 77 78 78 80 82 83 85 85 85 85
221 222 221 222 223 223 223 223 222 222 223 224 224 226 226 225 224 222 222 221 217 217 221 223 225 228 231 233 233 233 239 249 251 244 248 265 269 263 260 265 273 275 277 275 259 258 262 238 209 205 221 208 182 168 150 130 115 102 94 90 90 96 100 98 94 88 84 81 77 71 63 59 60 59 58 57 56 57 60 63 67 71 73 76 77 77 77 78 78 79 80 81 83 85 87 88 88
222 222 222 223 223 223 223 223 223 222 223 224 224 225 226 225 224 223 223 221 217 217 223 229 234 235 236 240 239 238 244 251 252 245 245 261 271 262 256 259 264 268 268 270 269 260 260 258 224 205 213 222 199 184 168 148 129 108 94 82 79 88 93 94 91 85 83 83 79 76 69 62 60 60 60 58 55 53 54 56 61 66 70 73 76 78 79 79 79 80 80 81 83 85 87 89 90
223 223 223 224 225 224 224 223 223 223 223 224 224 225 226 224 223 224 223 222 221 223 228 232 237 240 240 242 242 243 247 247 250 249 244 255 266 258 254 254 257 259 256 258 267 266 260 256 239 211 206 217 215 201 184 164 147 122 95 78 73 79 86 90 91 89 85 83 82 80 75 69 63 62 63 60 56 53 51 51 55 59 63 66 71 75 79 80 81 81 81 82 82 82 84 86 89
222 223 224 224 225 225 225 224 224 224 224 224 224 224 224 222 221 224 224 223 223 225 228 230 234 238 239 239 240 243 244 243 246 244 241 252 258 251 251 251 251 253 248 247 251 256 253 243 242 221 203 203 216 213 200 184 167 141 109 79 70 73 76 83 87 91 89 84 83 81 77 72 64 61 63 61 56 53 50 49 50 52 56 60 63 68 73 77 80 82 83 83 83 82 82 83 84
221 222 223 224 224 224 224 223 224 225 225 225 225 225 224 222 221 223 224 225 224 225 227 228 230 234 236 237 238 239 239 239 239 234 239 250 249 246 249 245 243 245 242 241 240 240 240 232 231 224 205 197 203 214 209 203 192 173 141 90 70 67 70 76 80 84 87 87 81 76 73 70 61 55 57 60 59 55 50 48 47 47 49 54 58 61 65 69 74 79 81 82 84 84 83 83 82
220 220 222 224 225 225 224 223 223 223 224 225 225 225 225 223 222 223 223 224 225 225 226 228 228 232 235 234 234 235 237 238 236 236 243 247 244 247 247 240 244 244 235 233 234 231 232 226 219 218 207 196 195 207 213 215 214 211 204 150 80 61 60 68 75 72 70 77 76 70 68 65 56 46 48 54 57 57 53 48 46 45 45 47 50 55 59 61 65 69 73 76 79 81 84 84 83
220 220 221 223 225 226 225 225 224 224 224 224 225 225 224 223 223 223 222 222 223 224 225 227 227 228 231 231 230 232 235 236 237 240 244 240 239 245 242 244 256 249 235 232 232 230 230 228 219 212 209 199 194 196 210 220 225 229 235 229 195 48 51 53 60 66 56 54 58 57 59 56 48 35 37 45 48 53 53 49 47 46 45 44 45 47 50 54 58 61 64 67 69 72 75 78 80
219 219 219 221 223 224 225 225 225 225 225 225 225 225 224 223 223 224 223 222 223 223 224 226 227 228 230 229 229 230 232 235 237 239 239 235 236 238 235 246 257 248 241 238 233 231 232 232 228 217 210 203 197 193 200 216 225 232 241 247 255 281 353 29 40 53 56 37 33 35 37 36 30 14 16 25 35 44 46 47 48 47 45 43 42 43 43 45 48 51 55 58 60 61 61 63 67
219 218 218 220 221 222 223 223 224 224 224 225 226 226 225 224 223 223 223 224 224 224 224 226 228 230 231 230 229 229 231 236 239 241 241 238 238 238 236 247 253 244 241 241 236 235 234 235 237 228 218 209 202 198 196 205 219 228 236 246 257 268 272 302 356 17 32 29 359 348 350 3 5 354 351 355 10 26 35 40 43 44 43 42 42 42 41 41 41 42 45 48 50 53 53 53 52
219 219 218 220 221 221 222 222 222 223 223 224 226 226 225 225 225 224 224 224 225 225 225 226 228 230 231 230 229 228 229 235 241 242 241 237 238 239 237 244 248 237 234 237 235 235 233 232 236 235 229 220 210 205 200 200 210 220 229 239 249 257 257 260 297 337 3 5 343 321 317 326 334 336 333 334 345 357 9 24 32 36 37 39 40 40 39 39 39 38 39 40 42 44 45 46 45
217 217 217 219 220 220 221 222 223 224 224 225 227 226 225 225 225 224 224 224 225 225 225 226 228 229 230 230 229 228 227 231 236 239 240 237 236 237 237 240 240 231 231 234 230 231 233 230 230 234 234 230 221 214 208 203 205 211 219 227 236 245 251 258 276 299 316 327 331 319 306 305 305 313 318 320 325 333 344 358 13 23 29 33 35 36 37 37 36 35 35 35 36 37 38 38 38
217 217 217 219 220 220 221 222 224 226 226 226 227 227 225 225 225 224 224 224 225 224 225 225 227 229 230 229 229 227 225 227 231 235 239 239 237 237 237 239 237 230 230 234 232 234 238 234 232 233 234 233 230 224 218 213 211 210 214 220 227 235 243 253 266 280 290 298 308 310 305 297 292 293 300 308 312 317 326 335 347 1 12 21 25 27 30 31 31 31 30 30 31 32 33 33 31
217 217 218 219 221 221 220 221 223 224 226 227 226 226 226 227 227 225 224 225 225 224 225 225 225 228 229 229 229 229 227 229 232 234 236 237 237 235 233 237 236 228 227 233 237 237 237 236 235 234 233 234 233 230 226 222 221 219 217 221 226 232 237 244 253 266 277 284 292 297 298 293 287 284 284 290 297 304 310 316 323 335 347 357 6 11 14 18 21 22 22 23 24 25 27 28 27
216 216 217 218 220 220 219 219 221 222 224 225 224 225 226 227 227 227 225 225 224 224 225 226 226 227 229 230 231 231 231 232 232 233 234 235 236 235 234 238 235 228 224 228 234 235 232 231 232 232 234 235 234 233 229 226 226 226 226 226 228 232 237 241 247 255 263 273 280 284 285 284 280 275 274 276 282 289 296 303 307 313 322 331 340 347 355 359 4 8 10 12 13 16 19 20 20
216 216 217 219 220 220 219 219 221 222 223 224 223 222 225 227 227 226 225 225 225 225 226 227 227 227 229 230 231 231 232 232 232 232 233 234 236 238 239 238 234 227 221 222 229 232 228 227 228 229 231 231 231 231 227 226 230 231 232 234 235 238 241 244 247 251 256 262 268 273 275 275 273 270 268 267 270 276 283 290 295 298 303 310 317 324 333 340 345 349 354 358 360 3 7 9 10